Tabellarische Ansicht des 11.6.2019


Die einzelnen Werte des Tages

Uhrzeit Temperatur Luftdruck Luftfeuchte Wind Hi-Wind Taupunkt THW Index Wind Chill Heat Index Solar- strahlung Regen

00:00

18.0 C

1006.2 hpa

89 %

3.2 km/h aus 117

6.4 km/h aus WSW

16.2 C

18.4 C

18.0 C

18.4 C

0 W/m

0.00 mm

00:05

18.0 C

1006.2 hpa

89 %

4.8 km/h aus 116

6.4 km/h aus WSW

16.2 C

18.4 C

18.0 C

18.4 C

0 W/m

0.00 mm

00:10

17.9 C

1006.2 hpa

89 %

4.8 km/h aus 117

8.0 km/h aus W

16.1 C

18.4 C

17.9 C

18.4 C

0 W/m

0.00 mm

00:15

17.9 C

1006.1 hpa

89 %

3.2 km/h aus 113

9.7 km/h aus WNW

16.0 C

18.3 C

17.9 C

18.3 C

0 W/m

0.00 mm

00:20

17.8 C

1006.1 hpa

89 %

3.2 km/h aus 115

6.4 km/h aus WNW

16.0 C

18.3 C

17.8 C

18.3 C

0 W/m

0.00 mm

00:25

17.8 C

1006.1 hpa

89 %

3.2 km/h aus 117

4.8 km/h aus WNW

16.0 C

18.3 C

17.8 C

18.3 C

0 W/m

0.00 mm

00:30

17.8 C

1006.3 hpa

89 %

1.6 km/h aus 117

6.4 km/h aus WNW

15.9 C

18.2 C

17.8 C

18.2 C

0 W/m

0.00 mm

00:35

17.7 C

1006.3 hpa

89 %

3.2 km/h aus 115

4.8 km/h aus WNW

15.9 C

18.2 C

17.7 C

18.2 C

0 W/m

0.00 mm

00:40

17.7 C

1006.3 hpa

89 %

3.2 km/h aus 115

4.8 km/h aus WNW

15.8 C

18.1 C

17.7 C

18.1 C

0 W/m

0.00 mm

00:45

17.6 C

1006.3 hpa

89 %

1.6 km/h aus 117

3.2 km/h aus WNW

15.7 C

17.9 C

17.6 C

17.9 C

0 W/m

0.00 mm

00:50

17.5 C

1006.3 hpa

89 %

0.0 km/h aus 117

0.0 km/h aus ---

15.7 C

17.9 C

17.5 C

17.9 C

0 W/m

0.00 mm

00:55

17.4 C

1006.3 hpa

89 %

0.0 km/h aus 117

0.0 km/h aus ---

15.6 C

17.8 C

17.4 C

17.8 C

0 W/m

0.00 mm

01:00

17.3 C

1006.2 hpa

89 %

0.0 km/h aus 114

3.2 km/h aus WNW

15.4 C

17.7 C

17.3 C

17.7 C

0 W/m

0.00 mm

01:05

17.2 C

1006.2 hpa

89 %

3.2 km/h aus 115

4.8 km/h aus WNW

15.4 C

17.6 C

17.2 C

17.6 C

0 W/m

0.00 mm

01:10

17.1 C

1006.2 hpa

89 %

1.6 km/h aus 117

3.2 km/h aus WNW

15.3 C

17.4 C

17.1 C

17.4 C

0 W/m

0.00 mm

01:15

17.1 C

1006.4 hpa

89 %

1.6 km/h aus 117

3.2 km/h aus WNW

15.2 C

17.4 C

17.1 C

17.4 C

0 W/m

0.00 mm

01:20

17.0 C

1006.4 hpa

89 %

1.6 km/h aus 117

3.2 km/h aus WNW

15.2 C

17.3 C

17.0 C

17.3 C

0 W/m

0.00 mm

01:25

16.9 C

1006.4 hpa

89 %

1.6 km/h aus 114

3.2 km/h aus WNW

15.1 C

17.3 C

16.9 C

17.3 C

0 W/m

0.00 mm

01:30

16.8 C

1006.5 hpa

89 %

3.2 km/h aus 115

6.4 km/h aus WNW

15.0 C

17.1 C

16.8 C

17.1 C

0 W/m

0.00 mm

01:35

16.8 C

1006.5 hpa

89 %

3.2 km/h aus 117

4.8 km/h aus WNW

15.0 C

17.1 C

16.8 C

17.1 C

0 W/m

0.00 mm

01:40

16.7 C

1006.5 hpa

89 %

1.6 km/h aus 118

4.8 km/h aus ESE

14.9 C

17.0 C

16.7 C

17.0 C

0 W/m

0.00 mm

01:45

16.6 C

1006.3 hpa

89 %

1.6 km/h aus 117

4.8 km/h aus ESE

14.8 C

16.9 C

16.6 C

16.9 C

0 W/m

0.00 mm

01:50

16.6 C

1006.3 hpa

89 %

3.2 km/h aus 114

4.8 km/h aus ESE

14.7 C

16.8 C

16.6 C

16.8 C

0 W/m

0.00 mm

01:55

16.5 C

1006.3 hpa

89 %

4.8 km/h aus 116

6.4 km/h aus ESE

14.7 C

16.7 C

16.5 C

16.7 C

0 W/m

0.00 mm

02:00

16.4 C

1006.3 hpa

90 %

1.6 km/h aus 117

4.8 km/h aus SE

14.8 C

16.7 C

16.4 C

16.7 C

0 W/m

0.00 mm

02:05

16.4 C

1006.3 hpa

90 %

1.6 km/h aus 115

3.2 km/h aus SE

14.7 C

16.7 C

16.4 C

16.7 C

0 W/m

0.00 mm

02:10

16.4 C

1006.3 hpa

90 %

3.2 km/h aus 115

4.8 km/h aus SE

14.7 C

16.7 C

16.4 C

16.7 C

0 W/m

0.00 mm

02:15

16.3 C

1006.2 hpa

90 %

4.8 km/h aus 114

6.4 km/h aus SE

14.7 C

16.6 C

16.3 C

16.6 C

0 W/m

0.00 mm

02:20

16.3 C

1006.2 hpa

91 %

4.8 km/h aus 117

6.4 km/h aus SE

14.9 C

16.6 C

16.3 C

16.6 C

0 W/m

0.00 mm

02:25

16.3 C

1006.2 hpa

91 %

3.2 km/h aus 117

4.8 km/h aus SE

14.9 C

16.6 C

16.3 C

16.6 C

0 W/m

0.00 mm

02:30

16.3 C

1006.1 hpa

91 %

3.2 km/h aus 116

4.8 km/h aus ESE

14.9 C

16.6 C

16.3 C

16.6 C

0 W/m

0.00 mm

02:35

16.3 C

1006.1 hpa

91 %

1.6 km/h aus 116

4.8 km/h aus ESE

14.8 C

16.6 C

16.3 C

16.6 C

0 W/m

0.00 mm

02:40

16.3 C

1006.1 hpa

91 %

1.6 km/h aus 115

3.2 km/h aus ESE

14.8 C

16.6 C

16.3 C

16.6 C

0 W/m

0.00 mm

02:45

16.3 C

1006.0 hpa

91 %

1.6 km/h aus 116

3.2 km/h aus ESE

14.8 C

16.6 C

16.3 C

16.6 C

0 W/m

0.00 mm

02:50

16.2 C

1006.0 hpa

91 %

0.0 km/h aus 116

1.6 km/h aus ESE

14.8 C

16.4 C

16.2 C

16.4 C

0 W/m

0.00 mm

02:55

16.2 C

1006.0 hpa

91 %

1.6 km/h aus 117

3.2 km/h aus ESE

14.8 C

16.4 C

16.2 C

16.4 C

0 W/m

0.00 mm

03:00

16.2 C

1005.9 hpa

91 %

1.6 km/h aus 114

4.8 km/h aus SE

14.7 C

16.4 C

16.2 C

16.4 C

0 W/m

0.00 mm

03:05

16.2 C

1005.9 hpa

91 %

1.6 km/h aus 114

4.8 km/h aus SSE

14.7 C

16.4 C

16.2 C

16.4 C

0 W/m

0.00 mm

03:10

16.2 C

1005.9 hpa

91 %

0.0 km/h aus 117

0.0 km/h aus ---

14.7 C

16.4 C

16.2 C

16.4 C

0 W/m

0.00 mm

03:15

16.2 C

1005.8 hpa

91 %

0.0 km/h aus 117

0.0 km/h aus ---

14.7 C

16.4 C

16.2 C

16.4 C

0 W/m

0.00 mm

03:20

16.2 C

1005.8 hpa

91 %

0.0 km/h aus 117

0.0 km/h aus ---

14.8 C

16.4 C

16.2 C

16.4 C

0 W/m

0.00 mm

03:25

16.2 C

1005.8 hpa

91 %

0.0 km/h aus 115

0.0 km/h aus ---

14.8 C

16.4 C

16.2 C

16.4 C

0 W/m

0.00 mm

03:30

16.2 C

1005.4 hpa

91 %

0.0 km/h aus 116

0.0 km/h aus ---

14.8 C

16.4 C

16.2 C

16.4 C

0 W/m

0.00 mm

03:35

16.2 C

1005.4 hpa

91 %

0.0 km/h aus 116

3.2 km/h aus SSE

14.8 C

16.4 C

16.2 C

16.4 C

0 W/m

0.00 mm

03:40

16.2 C

1005.4 hpa

92 %

3.2 km/h aus 117

6.4 km/h aus SSE

14.9 C

16.4 C

16.2 C

16.4 C

0 W/m

0.00 mm

03:45

16.2 C

1005.4 hpa

92 %

3.2 km/h aus 117

11.3 km/h aus SSE

14.9 C

16.5 C

16.2 C

16.5 C

0 W/m

0.00 mm

03:50

16.2 C

1005.4 hpa

92 %

4.8 km/h aus 114

6.4 km/h aus SE

14.9 C

16.5 C

16.2 C

16.5 C

0 W/m

0.00 mm

03:55

16.2 C

1005.4 hpa

92 %

3.2 km/h aus 116

4.8 km/h aus SSE

14.9 C

16.4 C

16.2 C

16.4 C

0 W/m

0.00 mm

04:00

16.2 C

1005.4 hpa

92 %

1.6 km/h aus 117

3.2 km/h aus SSE

14.9 C

16.4 C

16.2 C

16.4 C

0 W/m

0.00 mm

04:05

16.2 C

1005.4 hpa

92 %

3.2 km/h aus 117

4.8 km/h aus SSE

14.9 C

16.4 C

16.2 C

16.4 C

0 W/m

0.00 mm

04:10

16.2 C

1005.4 hpa

92 %

3.2 km/h aus 116

8.0 km/h aus SSE

14.9 C

16.4 C

16.2 C

16.4 C

0 W/m

0.00 mm

04:15

16.2 C

1005.7 hpa

92 %

6.4 km/h aus 114

11.3 km/h aus S

14.9 C

16.4 C

16.2 C

16.4 C

0 W/m

0.00 mm

04:20

16.2 C

1005.7 hpa

92 %

3.2 km/h aus 117

8.0 km/h aus S

14.9 C

16.5 C

16.2 C

16.5 C

0 W/m

0.00 mm

04:25

16.2 C

1005.7 hpa

92 %

3.2 km/h aus 117

4.8 km/h aus S

14.9 C

16.5 C

16.2 C

16.5 C

0 W/m

0.00 mm

04:30

16.2 C

1005.5 hpa

92 %

3.2 km/h aus 117

6.4 km/h aus S

14.9 C

16.4 C

16.2 C

16.4 C

0 W/m

0.00 mm

04:35

16.2 C

1005.5 hpa

92 %

6.4 km/h aus 115

8.0 km/h aus S

14.9 C

16.4 C

16.2 C

16.4 C

0 W/m

0.00 mm

04:40

16.2 C

1005.5 hpa

92 %

9.7 km/h aus 114

16.1 km/h aus S

14.9 C

16.4 C

16.1 C

16.5 C

0 W/m

0.00 mm

04:45

16.2 C

1005.4 hpa

93 %

9.7 km/h aus 115

16.1 km/h aus SSW

15.1 C

16.4 C

16.1 C

16.5 C

0 W/m

0.00 mm

04:50

16.3 C

1005.4 hpa

93 %

11.3 km/h aus 118

17.7 km/h aus S

15.1 C

16.3 C

16.0 C

16.6 C

0 W/m

0.00 mm

04:55

16.2 C

1005.4 hpa

93 %

11.3 km/h aus 117

16.1 km/h aus SSE

15.1 C

16.2 C

15.9 C

16.5 C

0 W/m

0.00 mm

05:00

16.3 C

1005.6 hpa

93 %

6.4 km/h aus 116

14.5 km/h aus SSE

15.1 C

16.6 C

16.3 C

16.6 C

0 W/m

0.00 mm

05:05

16.3 C

1005.6 hpa

93 %

4.8 km/h aus 114

9.7 km/h aus SSW

15.1 C

16.6 C

16.3 C

16.6 C

2 W/m

0.00 mm

05:10

16.3 C

1005.6 hpa

93 %

4.8 km/h aus 117

9.7 km/h aus SSW

15.1 C

16.6 C

16.3 C

16.6 C

7 W/m

0.00 mm

05:15

16.3 C

1005.9 hpa

93 %

9.7 km/h aus 117

17.7 km/h aus S

15.2 C

16.6 C

16.3 C

16.6 C

11 W/m

0.00 mm

05:20

16.3 C

1005.9 hpa

93 %

9.7 km/h aus 116

16.1 km/h aus SSW

15.2 C

16.6 C

16.3 C

16.6 C

16 W/m

0.00 mm

05:25

16.4 C

1005.9 hpa

93 %

8.0 km/h aus 115

17.7 km/h aus SSW

15.3 C

16.7 C

16.4 C

16.7 C

12 W/m

0.00 mm

05:30

16.4 C

1006.0 hpa

93 %

6.4 km/h aus 115

11.3 km/h aus SSW

15.3 C

16.7 C

16.4 C

16.7 C

11 W/m

0.00 mm

05:35

16.4 C

1006.0 hpa

93 %

6.4 km/h aus 117

14.5 km/h aus SSW

15.3 C

16.8 C

16.4 C

16.8 C

3 W/m

0.00 mm

05:40

16.4 C

1006.0 hpa

93 %

8.0 km/h aus 116

14.5 km/h aus WSW

15.3 C

16.8 C

16.4 C

16.8 C

0 W/m

0.00 mm

05:45

16.5 C

1006.4 hpa

93 %

6.4 km/h aus 117

12.9 km/h aus SW

15.4 C

16.8 C

16.5 C

16.8 C

0 W/m

0.00 mm

05:50

16.5 C

1006.4 hpa

93 %

8.0 km/h aus 115

14.5 km/h aus S

15.4 C

16.8 C

16.5 C

16.8 C

0 W/m

0.00 mm

05:55

16.6 C

1006.4 hpa

93 %

8.0 km/h aus 117

16.1 km/h aus S

15.4 C

16.9 C

16.6 C

16.9 C

0 W/m

0.25 mm

06:00

16.6 C

1006.4 hpa

93 %

8.0 km/h aus 117

17.7 km/h aus S

15.4 C

16.9 C

16.6 C

16.9 C

2 W/m

0.00 mm

06:05

16.5 C

1006.4 hpa

93 %

8.0 km/h aus 116

14.5 km/h aus SW

15.4 C

16.8 C

16.5 C

16.8 C

6 W/m

0.51 mm

06:10

16.4 C

1006.4 hpa

93 %

8.0 km/h aus 117

17.7 km/h aus SSW

15.3 C

16.8 C

16.4 C

16.8 C

5 W/m

0.25 mm

06:15

16.4 C

1006.4 hpa

93 %

8.0 km/h aus 114

17.7 km/h aus SSW

15.3 C

16.7 C

16.4 C

16.7 C

9 W/m

0.25 mm

06:20

16.3 C

1006.4 hpa

93 %

8.0 km/h aus 116

16.1 km/h aus SW

15.2 C

16.6 C

16.3 C

16.6 C

12 W/m

0.51 mm

06:25

16.3 C

1006.4 hpa

93 %

6.4 km/h aus 116

9.7 km/h aus SSW

15.2 C

16.6 C

16.3 C

16.6 C

22 W/m

0.25 mm

06:30

16.3 C

1006.4 hpa

93 %

8.0 km/h aus 116

16.1 km/h aus S

15.1 C

16.6 C

16.3 C

16.6 C

32 W/m

0.00 mm

06:35

16.3 C

1006.4 hpa

93 %

6.4 km/h aus 117

14.5 km/h aus SW

15.1 C

16.6 C

16.3 C

16.6 C

27 W/m

0.25 mm

06:40

16.3 C

1006.4 hpa

93 %

6.4 km/h aus 112

14.5 km/h aus SW

15.1 C

16.6 C

16.3 C

16.6 C

26 W/m

0.00 mm

06:45

16.2 C

1006.7 hpa

93 %

11.3 km/h aus 116

19.3 km/h aus SSE

15.1 C

16.2 C

15.9 C

16.5 C

17 W/m

0.00 mm

06:50

16.2 C

1006.7 hpa

93 %

9.7 km/h aus 116

16.1 km/h aus S

15.1 C

16.4 C

16.1 C

16.5 C

14 W/m

0.25 mm

06:55

16.2 C

1006.7 hpa

93 %

9.7 km/h aus 116

19.3 km/h aus SSW

15.0 C

16.3 C

16.1 C

16.4 C

13 W/m

0.25 mm

07:00

16.1 C

1006.9 hpa

93 %

11.3 km/h aus 117

20.9 km/h aus SW

15.0 C

16.1 C

15.8 C

16.4 C

13 W/m

0.25 mm

07:05

16.1 C

1006.9 hpa

93 %

11.3 km/h aus 113

22.5 km/h aus SSW

14.9 C

16.0 C

15.7 C

16.3 C

14 W/m

0.25 mm

07:10

16.0 C

1006.9 hpa

93 %

9.7 km/h aus 117

17.7 km/h aus SSW

14.9 C

16.1 C

15.9 C

16.2 C

19 W/m

0.51 mm

07:15

16.0 C

1006.6 hpa

93 %

4.8 km/h aus 116

12.9 km/h aus SSW

14.9 C

16.2 C

16.0 C

16.2 C

25 W/m

0.25 mm

07:20

15.9 C

1006.6 hpa

93 %

8.0 km/h aus 117

17.7 km/h aus SSW

14.8 C

16.2 C

15.9 C

16.2 C

27 W/m

0.25 mm

07:25

15.9 C

1006.6 hpa

93 %

11.3 km/h aus 116

20.9 km/h aus SSW

14.8 C

15.8 C

15.6 C

16.2 C

25 W/m

0.00 mm

07:30

15.9 C

1007.3 hpa

93 %

6.4 km/h aus 114

11.3 km/h aus SSW

14.8 C

16.1 C

15.9 C

16.1 C

24 W/m

0.25 mm

07:35

15.8 C

1007.3 hpa

93 %

8.0 km/h aus 117

16.1 km/h aus SW

14.7 C

16.1 C

15.8 C

16.1 C

14 W/m

0.25 mm

07:40

15.8 C

1007.3 hpa

93 %

6.4 km/h aus 117

11.3 km/h aus S

14.7 C

16.1 C

15.8 C

16.1 C

10 W/m

0.51 mm

07:45

15.8 C

1007.3 hpa

93 %

8.0 km/h aus 117

14.5 km/h aus SSW

14.6 C

16.0 C

15.8 C

16.0 C

15 W/m

0.25 mm

07:50

15.8 C

1007.3 hpa

93 %

6.4 km/h aus 116

17.7 km/h aus SW

14.6 C

16.0 C

15.8 C

16.0 C

24 W/m

0.51 mm

07:55

15.7 C

1007.3 hpa

93 %

8.0 km/h aus 115

17.7 km/h aus SSW

14.6 C

15.9 C

15.7 C

15.9 C

49 W/m

0.51 mm

08:00

15.7 C

1006.7 hpa

93 %

8.0 km/h aus 118

19.3 km/h aus SSW

14.5 C

15.9 C

15.7 C

15.9 C

63 W/m

0.00 mm

08:05

15.7 C

1006.7 hpa

93 %

8.0 km/h aus 117

16.1 km/h aus SSW

14.5 C

15.9 C

15.7 C

15.9 C

61 W/m

0.51 mm

08:10

15.6 C

1006.7 hpa

94 %

6.4 km/h aus 117

14.5 km/h aus SSW

14.6 C

15.8 C

15.6 C

15.8 C

35 W/m

0.00 mm

08:15

15.6 C

1007.2 hpa

94 %

6.4 km/h aus 114

16.1 km/h aus SW

14.6 C

15.8 C

15.6 C

15.8 C

24 W/m

0.25 mm

08:20

15.5 C

1007.2 hpa

94 %

8.0 km/h aus 114

17.7 km/h aus SSW

14.5 C

15.7 C

15.5 C

15.7 C

22 W/m

0.25 mm

08:25

15.5 C

1007.2 hpa

94 %

6.4 km/h aus 117

17.7 km/h aus SSW

14.5 C

15.7 C

15.5 C

15.7 C

26 W/m

0.51 mm

08:30

15.5 C

1007.5 hpa

93 %

6.4 km/h aus 116

11.3 km/h aus SSW

14.4 C

15.7 C

15.5 C

15.7 C

33 W/m

0.25 mm

08:35

15.4 C

1007.5 hpa

93 %

9.7 km/h aus 117

19.3 km/h aus S

14.3 C

15.3 C

15.1 C

15.6 C

68 W/m

0.25 mm

08:40

15.3 C

1007.5 hpa

94 %

6.4 km/h aus 115

9.7 km/h aus WSW

14.4 C

15.6 C

15.3 C

15.6 C

113 W/m

0.51 mm

08:45

15.4 C

1007.4 hpa

94 %

6.4 km/h aus 115

16.1 km/h aus WSW

14.4 C

15.6 C

15.4 C

15.6 C

158 W/m

0.25 mm

08:50

15.4 C

1007.4 hpa

94 %

4.8 km/h aus 117

14.5 km/h aus SW

14.5 C

15.7 C

15.4 C

15.7 C

113 W/m

0.00 mm

08:55

15.5 C

1007.4 hpa

94 %

6.4 km/h aus 117

11.3 km/h aus WSW

14.5 C

15.7 C

15.5 C

15.7 C

90 W/m

0.00 mm

09:00

15.4 C

1007.5 hpa

94 %

6.4 km/h aus 117

14.5 km/h aus SW

14.5 C

15.7 C

15.4 C

15.7 C

133 W/m

0.00 mm

09:05

15.6 C

1007.5 hpa

94 %

6.4 km/h aus 116

11.3 km/h aus WSW

14.6 C

15.8 C

15.6 C

15.8 C

179 W/m

0.00 mm

09:10

15.7 C

1007.5 hpa

94 %

6.4 km/h aus 115

11.3 km/h aus WSW

14.8 C

15.9 C

15.7 C

15.9 C

346 W/m

0.00 mm

09:15

15.7 C

1007.5 hpa

94 %

8.0 km/h aus 117

16.1 km/h aus SSW

14.8 C

15.9 C

15.7 C

15.9 C

212 W/m

0.00 mm

09:20

15.8 C

1007.5 hpa

94 %

6.4 km/h aus 117

11.3 km/h aus S

14.9 C

16.1 C

15.8 C

16.1 C

227 W/m

0.00 mm

09:25

15.7 C

1007.5 hpa

93 %

9.7 km/h aus 117

19.3 km/h aus SSW

14.5 C

15.7 C

15.4 C

15.9 C

312 W/m

0.00 mm

09:30

15.8 C

1007.5 hpa

93 %

8.0 km/h aus 114

16.1 km/h aus S

14.7 C

16.1 C

15.8 C

16.1 C

368 W/m

0.00 mm

09:35

15.8 C

1007.5 hpa

93 %

6.4 km/h aus 115

14.5 km/h aus SSW

14.7 C

16.1 C

15.8 C

16.1 C

226 W/m

0.00 mm

09:40

15.9 C

1007.5 hpa

93 %

4.8 km/h aus 117

9.7 km/h aus S

14.8 C

16.2 C

15.9 C

16.2 C

183 W/m

0.00 mm

09:45

15.9 C

1007.5 hpa

93 %

6.4 km/h aus 117

11.3 km/h aus S

14.8 C

16.2 C

15.9 C

16.2 C

128 W/m

0.00 mm

09:50

15.9 C

1007.5 hpa

93 %

6.4 km/h aus 117

16.1 km/h aus SW

14.8 C

16.1 C

15.9 C

16.1 C

101 W/m

0.00 mm

09:55

15.9 C

1007.5 hpa

93 %

4.8 km/h aus 114

11.3 km/h aus SW

14.8 C

16.1 C

15.9 C

16.1 C

148 W/m

0.00 mm

10:00

16.1 C

1007.7 hpa

93 %

6.4 km/h aus 116

11.3 km/h aus SSW

14.9 C

16.3 C

16.1 C

16.3 C

177 W/m

0.00 mm

10:05

16.1 C

1007.7 hpa

92 %

6.4 km/h aus 117

11.3 km/h aus SSW

14.8 C

16.3 C

16.1 C

16.3 C

220 W/m

0.00 mm

10:10

16.2 C

1007.7 hpa

92 %

4.8 km/h aus 118

9.7 km/h aus SW

14.9 C

16.5 C

16.2 C

16.5 C

217 W/m

0.00 mm

10:15

16.3 C

1007.6 hpa

92 %

4.8 km/h aus 116

8.0 km/h aus SW

15.0 C

16.6 C

16.3 C

16.6 C

202 W/m

0.00 mm

10:20

16.5 C

1007.6 hpa

92 %

4.8 km/h aus 114

11.3 km/h aus W

15.2 C

16.8 C

16.5 C

16.8 C

253 W/m

0.00 mm

10:25

16.5 C

1007.6 hpa

92 %

4.8 km/h aus 117

9.7 km/h aus SW

15.2 C

16.8 C

16.5 C

16.8 C

174 W/m

0.00 mm

10:30

16.4 C

1007.9 hpa

91 %

4.8 km/h aus 117

9.7 km/h aus SW

14.9 C

16.7 C

16.4 C

16.7 C

206 W/m

0.00 mm

10:35

16.6 C

1007.9 hpa

91 %

4.8 km/h aus 117

9.7 km/h aus WSW

15.1 C

16.8 C

16.6 C

16.8 C

197 W/m

0.00 mm

10:40

16.6 C

1007.9 hpa

91 %

4.8 km/h aus 116

11.3 km/h aus S

15.1 C

16.9 C

16.6 C

16.9 C

198 W/m

0.00 mm

10:45

16.7 C

1007.9 hpa

90 %

8.0 km/h aus 115

12.9 km/h aus SW

15.0 C

16.9 C

16.7 C

16.9 C

238 W/m

0.00 mm

10:50

16.6 C

1007.9 hpa

90 %

9.7 km/h aus 116

17.7 km/h aus SW

15.0 C

16.9 C

16.6 C

16.9 C

216 W/m

0.00 mm

10:55

16.7 C

1007.9 hpa

90 %

8.0 km/h aus 117

16.1 km/h aus SSW

15.1 C

17.0 C

16.7 C

17.0 C

401 W/m

0.00 mm

11:00

17.1 C

1007.9 hpa

90 %

8.0 km/h aus 117

17.7 km/h aus SW

15.5 C

17.5 C

17.1 C

17.5 C

394 W/m

0.00 mm

11:05

17.0 C

1007.9 hpa

88 %

9.7 km/h aus 114

16.1 km/h aus SW

15.0 C

17.3 C

17.0 C

17.3 C

247 W/m

0.00 mm

11:10

16.9 C

1007.9 hpa

88 %

6.4 km/h aus 114

17.7 km/h aus SSW

14.9 C

17.2 C

16.9 C

17.2 C

201 W/m

0.00 mm

11:15

16.9 C

1008.0 hpa

89 %

9.7 km/h aus 117

19.3 km/h aus SSW

15.1 C

17.2 C

16.9 C

17.2 C

328 W/m

0.00 mm

11:20

16.9 C

1008.0 hpa

88 %

9.7 km/h aus 117

17.7 km/h aus SW

14.9 C

17.2 C

16.9 C

17.2 C

301 W/m

0.00 mm

11:25

16.8 C

1008.0 hpa

88 %

9.7 km/h aus 116

20.9 km/h aus SW

14.8 C

17.1 C

16.8 C

17.1 C

274 W/m

0.00 mm

11:30

16.9 C

1008.0 hpa

88 %

9.7 km/h aus 114

17.7 km/h aus WSW

14.9 C

17.2 C

16.9 C

17.2 C

364 W/m

0.00 mm

11:35

17.5 C

1008.0 hpa

89 %

6.4 km/h aus 116

11.3 km/h aus SSW

15.7 C

17.9 C

17.5 C

17.9 C

479 W/m

0.00 mm

11:40

17.7 C

1008.0 hpa

87 %

8.0 km/h aus 116

14.5 km/h aus SW

15.5 C

18.1 C

17.7 C

18.1 C

469 W/m

0.00 mm

11:45

18.0 C

1007.9 hpa

86 %

8.0 km/h aus 116

14.5 km/h aus SW

15.6 C

18.4 C

18.0 C

18.4 C

548 W/m

0.00 mm

11:50

18.7 C

1007.9 hpa

84 %

6.4 km/h aus 116

11.3 km/h aus WSW

15.9 C

19.2 C

18.7 C

19.2 C

604 W/m

0.00 mm

11:55

18.9 C

1007.9 hpa

82 %

6.4 km/h aus 114

14.5 km/h aus SSW

15.8 C

19.5 C

18.9 C

19.5 C

605 W/m

0.00 mm

12:00

18.6 C

1008.0 hpa

80 %

6.4 km/h aus 117

12.9 km/h aus SW

15.1 C

19.1 C

18.6 C

19.1 C

535 W/m

0.00 mm

12:05

18.6 C

1008.0 hpa

82 %

6.4 km/h aus 116

14.5 km/h aus SSW

15.5 C

19.1 C

18.6 C

19.1 C

437 W/m

0.00 mm

12:10

18.8 C

1008.0 hpa

81 %

6.4 km/h aus 116

11.3 km/h aus W

15.4 C

19.3 C

18.8 C

19.3 C

368 W/m

0.00 mm

12:15

18.2 C

1008.0 hpa

83 %

6.4 km/h aus 115

16.1 km/h aus WSW

15.3 C

18.6 C

18.2 C

18.6 C

280 W/m

0.00 mm

12:20

18.2 C

1008.0 hpa

83 %

6.4 km/h aus 116

14.5 km/h aus WSW

15.3 C

18.6 C

18.2 C

18.6 C

326 W/m

0.00 mm

12:25

18.9 C

1008.0 hpa

84 %

4.8 km/h aus 117

11.3 km/h aus SSW

16.1 C

19.4 C

18.9 C

19.4 C

523 W/m

0.00 mm

12:30

18.8 C

1008.0 hpa

80 %

8.0 km/h aus 117

14.5 km/h aus SW

15.3 C

19.3 C

18.8 C

19.3 C

324 W/m

0.00 mm

12:35

19.0 C

1008.0 hpa

80 %

8.0 km/h aus 117

14.5 km/h aus WSW

15.5 C

19.5 C

19.0 C

19.5 C

549 W/m

0.00 mm

12:40

18.8 C

1008.0 hpa

79 %

8.0 km/h aus 114

14.5 km/h aus SW

15.1 C

19.3 C

18.8 C

19.3 C

344 W/m

0.00 mm

12:45

18.6 C

1008.0 hpa

80 %

6.4 km/h aus 117

16.1 km/h aus WSW

15.1 C

19.1 C

18.6 C

19.1 C

310 W/m

0.00 mm

12:50

18.4 C

1008.0 hpa

79 %

8.0 km/h aus 116

16.1 km/h aus SW

14.7 C

18.8 C

18.4 C

18.8 C

290 W/m

0.00 mm

12:55

18.7 C

1008.0 hpa

78 %

6.4 km/h aus 117

11.3 km/h aus WSW

14.8 C

19.1 C

18.7 C

19.1 C

403 W/m

0.00 mm

13:00

19.5 C

1008.0 hpa

80 %

8.0 km/h aus 114

12.9 km/h aus SSE

16.0 C

20.1 C

19.5 C

20.1 C

580 W/m

0.00 mm

13:05

19.4 C

1008.0 hpa

77 %

8.0 km/h aus 115

11.3 km/h aus S

15.3 C

19.9 C

19.4 C

19.9 C

459 W/m

0.00 mm

13:10

19.4 C

1008.0 hpa

76 %

4.8 km/h aus 117

9.7 km/h aus SW

15.1 C

19.9 C

19.4 C

19.9 C

432 W/m

0.00 mm

13:15

19.2 C

1008.2 hpa

76 %

6.4 km/h aus 117

16.1 km/h aus SW

14.9 C

19.6 C

19.2 C

19.6 C

310 W/m

0.00 mm

13:20

18.9 C

1008.2 hpa

76 %

11.3 km/h aus 118

17.7 km/h aus SSW

14.6 C

19.3 C

18.9 C

19.3 C

362 W/m

0.00 mm

13:25

19.1 C

1008.2 hpa

79 %

6.4 km/h aus 114

11.3 km/h aus SSW

15.4 C

19.6 C

19.1 C

19.6 C

280 W/m

0.00 mm

13:30

18.8 C

1008.5 hpa

75 %

9.7 km/h aus 116

17.7 km/h aus SW

14.3 C

19.1 C

18.8 C

19.1 C

360 W/m

0.00 mm

13:35

18.9 C

1008.5 hpa

77 %

9.7 km/h aus 117

16.1 km/h aus SW

14.8 C

19.3 C

18.9 C

19.3 C

446 W/m

0.00 mm

13:40

19.4 C

1008.5 hpa

76 %

8.0 km/h aus 117

16.1 km/h aus S

15.0 C

19.8 C

19.4 C

19.8 C

612 W/m

0.00 mm

13:45

20.5 C

1008.4 hpa

76 %

8.0 km/h aus 115

16.1 km/h aus SSW

16.1 C

21.1 C

20.5 C

21.1 C

672 W/m

0.00 mm

13:50

20.4 C

1008.4 hpa

72 %

8.0 km/h aus 115

16.1 km/h aus SSW

15.2 C

20.8 C

20.4 C

20.8 C

668 W/m

0.00 mm

13:55

20.1 C

1008.4 hpa

75 %

8.0 km/h aus 117

17.7 km/h aus S

15.5 C

20.6 C

20.1 C

20.6 C

357 W/m

0.00 mm

14:00

19.8 C

1008.2 hpa

77 %

8.0 km/h aus 116

14.5 km/h aus S

15.6 C

20.3 C

19.8 C

20.3 C

327 W/m

0.00 mm

14:05

19.5 C

1008.2 hpa

75 %

6.4 km/h aus 116

17.7 km/h aus S

14.9 C

19.9 C

19.5 C

19.9 C

313 W/m

0.00 mm

14:10

19.9 C

1008.2 hpa

75 %

4.8 km/h aus 114

12.9 km/h aus SW

15.3 C

20.4 C

19.9 C

20.4 C

356 W/m

0.00 mm

14:15

19.6 C

1008.0 hpa

74 %

8.0 km/h aus 116

16.1 km/h aus WSW

14.8 C

19.9 C

19.6 C

19.9 C

247 W/m

0.00 mm

14:20

19.4 C

1008.0 hpa

76 %

6.4 km/h aus 117

12.9 km/h aus W

15.1 C

19.9 C

19.4 C

19.9 C

231 W/m

0.00 mm

14:25

20.1 C

1008.0 hpa

73 %

8.0 km/h aus 118

14.5 km/h aus SW

15.1 C

20.5 C

20.1 C

20.5 C

378 W/m

0.00 mm

14:30

19.7 C

1008.1 hpa

72 %

9.7 km/h aus 116

16.1 km/h aus SW

14.5 C

20.1 C

19.7 C

20.1 C

303 W/m

0.00 mm

14:35

20.0 C

1008.1 hpa

72 %

9.7 km/h aus 114

17.7 km/h aus W

14.8 C

20.4 C

20.0 C

20.4 C

409 W/m

0.00 mm

14:40

19.8 C

1008.1 hpa

74 %

8.0 km/h aus 117

17.7 km/h aus SW

15.0 C

20.2 C

19.8 C

20.2 C

255 W/m

0.00 mm

14:45

19.9 C

1008.1 hpa

76 %

8.0 km/h aus 117

19.3 km/h aus W

15.5 C

20.4 C

19.9 C

20.4 C

371 W/m

0.00 mm

14:50

20.1 C

1008.1 hpa

73 %

11.3 km/h aus 116

17.7 km/h aus WSW

15.1 C

20.5 C

20.1 C

20.5 C

567 W/m

0.00 mm

14:55

20.3 C

1008.1 hpa

75 %

9.7 km/h aus 113

19.3 km/h aus WSW

15.7 C

20.8 C

20.3 C

20.8 C

458 W/m

0.00 mm

15:00

20.2 C

1008.4 hpa

73 %

9.7 km/h aus 116

16.1 km/h aus WSW

15.2 C

20.7 C

20.2 C

20.7 C

533 W/m

0.00 mm

15:05

20.3 C

1008.4 hpa

73 %

9.7 km/h aus 117

19.3 km/h aus SW

15.3 C

20.8 C

20.3 C

20.8 C

628 W/m

0.00 mm

15:10

20.7 C

1008.4 hpa

70 %

9.7 km/h aus 117

16.1 km/h aus WSW

15.0 C

20.8 C

20.7 C

20.8 C

651 W/m

0.00 mm

15:15

20.7 C

1008.3 hpa

70 %

9.7 km/h aus 116

16.1 km/h aus WSW

15.1 C

20.9 C

20.7 C

20.9 C

647 W/m

0.00 mm

15:20

20.5 C

1008.3 hpa

70 %

9.7 km/h aus 114

16.1 km/h aus W

14.8 C

20.7 C

20.5 C

20.7 C

410 W/m

0.00 mm

15:25

20.2 C

1008.3 hpa

74 %

9.7 km/h aus 117

19.3 km/h aus SW

15.4 C

20.7 C

20.2 C

20.7 C

331 W/m

0.00 mm

15:30

20.1 C

1008.5 hpa

74 %

9.7 km/h aus 118

17.7 km/h aus WNW

15.3 C

20.5 C

20.1 C

20.5 C

338 W/m

0.00 mm

15:35

20.0 C

1008.5 hpa

74 %

8.0 km/h aus 117

14.5 km/h aus WSW

15.2 C

20.4 C

20.0 C

20.4 C

321 W/m

0.00 mm

15:40

20.1 C

1008.5 hpa

73 %

8.0 km/h aus 114

14.5 km/h aus WSW

15.1 C

20.5 C

20.1 C

20.5 C

375 W/m

0.00 mm

15:45

20.0 C

1008.6 hpa

73 %

8.0 km/h aus 115

14.5 km/h aus WNW

15.0 C

20.4 C

20.0 C

20.4 C

321 W/m

0.00 mm

15:50

20.1 C

1008.6 hpa

72 %

9.7 km/h aus 116

17.7 km/h aus SSW

14.9 C

20.5 C

20.1 C

20.5 C

402 W/m

0.00 mm

15:55

20.4 C

1008.6 hpa

74 %

6.4 km/h aus 117

14.5 km/h aus WSW

15.7 C

20.9 C

20.4 C

20.9 C

630 W/m

0.00 mm

16:00

20.8 C

1008.5 hpa

71 %

9.7 km/h aus 116

16.1 km/h aus WSW

15.4 C

21.1 C

20.8 C

21.1 C

471 W/m

0.00 mm

16:05

20.3 C

1008.5 hpa

71 %

9.7 km/h aus 115

16.1 km/h aus W

14.8 C

20.6 C

20.3 C

20.6 C

428 W/m

0.00 mm

16:10

20.4 C

1008.5 hpa

70 %

8.0 km/h aus 117

12.9 km/h aus WSW

14.8 C

20.7 C

20.4 C

20.7 C

415 W/m

0.00 mm

16:15

20.2 C

1008.5 hpa

73 %

8.0 km/h aus 116

16.1 km/h aus WSW

15.2 C

20.6 C

20.2 C

20.6 C

325 W/m

0.00 mm

16:20

20.1 C

1008.5 hpa

72 %

8.0 km/h aus 115

14.5 km/h aus W

14.9 C

20.4 C

20.1 C

20.4 C

297 W/m

0.00 mm

16:25

19.9 C

1008.5 hpa

72 %

9.7 km/h aus 114

14.5 km/h aus WSW

14.7 C

20.3 C

19.9 C

20.3 C

338 W/m

0.00 mm

16:30

20.1 C

1008.5 hpa

71 %

6.4 km/h aus 116

11.3 km/h aus WSW

14.7 C

20.4 C

20.1 C

20.4 C

437 W/m

0.00 mm

16:35

20.0 C

1008.5 hpa

73 %

3.2 km/h aus 118

9.7 km/h aus NW

15.0 C

20.4 C

20.0 C

20.4 C

364 W/m

0.00 mm

16:40

20.0 C

1008.5 hpa

72 %

4.8 km/h aus 117

8.0 km/h aus W

14.8 C

20.4 C

20.0 C

20.4 C

319 W/m

0.00 mm

16:45

20.1 C

1008.4 hpa

73 %

4.8 km/h aus 115

8.0 km/h aus SW

15.1 C

20.5 C

20.1 C

20.5 C

302 W/m

0.00 mm

16:50

20.4 C

1008.4 hpa

73 %

6.4 km/h aus 116

11.3 km/h aus WSW

15.4 C

20.9 C

20.4 C

20.9 C

383 W/m

0.00 mm

16:55

20.4 C

1008.4 hpa

73 %

4.8 km/h aus 116

8.0 km/h aus W

15.4 C

20.8 C

20.4 C

20.8 C

295 W/m

0.00 mm

17:00

20.1 C

1008.1 hpa

71 %

3.2 km/h aus 116

8.0 km/h aus WNW

14.6 C

20.4 C

20.1 C

20.4 C

267 W/m

0.00 mm

17:05

20.2 C

1008.1 hpa

70 %

4.8 km/h aus 116

9.7 km/h aus WNW

14.6 C

20.5 C

20.2 C

20.5 C

328 W/m

0.00 mm

17:10

20.2 C

1008.1 hpa

72 %

6.4 km/h aus 114

8.0 km/h aus W

15.0 C

20.6 C

20.2 C

20.6 C

306 W/m

0.00 mm

17:15

20.1 C

1008.0 hpa

70 %

6.4 km/h aus 116

11.3 km/h aus W

14.4 C

20.4 C

20.1 C

20.4 C

240 W/m

0.00 mm

17:20

20.2 C

1008.0 hpa

72 %

3.2 km/h aus 117

6.4 km/h aus NW

15.0 C

20.6 C

20.2 C

20.6 C

408 W/m

0.00 mm

17:25

20.6 C

1008.0 hpa

71 %

3.2 km/h aus 116

6.4 km/h aus NW

15.2 C

20.9 C

20.6 C

20.9 C

400 W/m

0.00 mm

17:30

20.3 C

1008.1 hpa

70 %

3.2 km/h aus 113

8.0 km/h aus NW

14.6 C

20.6 C

20.3 C

20.6 C

159 W/m

0.00 mm

17:35

20.0 C

1008.1 hpa

71 %

3.2 km/h aus 115

6.4 km/h aus NNW

14.6 C

20.4 C

20.0 C

20.4 C

161 W/m

0.00 mm

17:40

19.8 C

1008.1 hpa

70 %

1.6 km/h aus 116

6.4 km/h aus WSW

14.1 C

20.1 C

19.8 C

20.1 C

169 W/m

0.00 mm

17:45

19.7 C

1008.4 hpa

72 %

0.0 km/h aus 117

3.2 km/h aus WSW

14.5 C

20.1 C

19.7 C

20.1 C

163 W/m

0.00 mm

17:50

19.8 C

1008.4 hpa

74 %

1.6 km/h aus 115

4.8 km/h aus WSW

15.0 C

20.2 C

19.8 C

20.2 C

153 W/m

0.00 mm

17:55

19.8 C

1008.4 hpa

72 %

1.6 km/h aus 114

4.8 km/h aus WSW

14.6 C

20.2 C

19.8 C

20.2 C

143 W/m

0.00 mm

18:00

19.9 C

1008.5 hpa

71 %

1.6 km/h aus 117

3.2 km/h aus WSW

14.5 C

20.3 C

19.9 C

20.3 C

149 W/m

0.00 mm

18:05

20.1 C

1008.5 hpa

71 %

1.6 km/h aus 117

4.8 km/h aus WSW

14.6 C

20.4 C

20.1 C

20.4 C

142 W/m

0.00 mm

18:10

20.2 C

1008.5 hpa

70 %

1.6 km/h aus 117

3.2 km/h aus WSW

14.5 C

20.4 C

20.2 C

20.4 C

139 W/m

0.00 mm

18:15

20.2 C

1008.5 hpa

70 %

1.6 km/h aus 113

3.2 km/h aus WSW

14.6 C

20.5 C

20.2 C

20.5 C

100 W/m

0.00 mm

18:20

20.2 C

1008.5 hpa

69 %

1.6 km/h aus 115

3.2 km/h aus WSW

14.3 C

20.4 C

20.2 C

20.4 C

84 W/m

0.00 mm

18:25

20.2 C

1008.5 hpa

69 %

1.6 km/h aus 117

3.2 km/h aus WSW

14.3 C

20.4 C

20.2 C

20.4 C

66 W/m

0.00 mm

18:30

20.2 C

1008.5 hpa

69 %

1.6 km/h aus 117

1.6 km/h aus WSW

14.3 C

20.4 C

20.2 C

20.4 C

52 W/m

0.00 mm

18:35

20.3 C

1008.5 hpa

70 %

0.0 km/h aus 115

1.6 km/h aus WSW

14.6 C

20.6 C

20.3 C

20.6 C

67 W/m

0.00 mm

18:40

20.3 C

1008.5 hpa

70 %

0.0 km/h aus 115

1.6 km/h aus WSW

14.6 C

20.6 C

20.3 C

20.6 C

96 W/m

0.00 mm

18:45

20.2 C

1008.5 hpa

70 %

1.6 km/h aus 117

1.6 km/h aus WSW

14.6 C

20.5 C

20.2 C

20.5 C

119 W/m

0.00 mm

18:50

20.2 C

1008.5 hpa

71 %

1.6 km/h aus 116

3.2 km/h aus WSW

14.8 C

20.6 C

20.2 C

20.6 C

134 W/m

0.00 mm

18:55

20.2 C

1008.5 hpa

70 %

0.0 km/h aus 117

1.6 km/h aus WSW

14.6 C

20.5 C

20.2 C

20.5 C

156 W/m

0.00 mm

19:00

20.3 C

1008.5 hpa

70 %

0.0 km/h aus 113

1.6 km/h aus WSW

14.6 C

20.6 C

20.3 C

20.6 C

187 W/m

0.00 mm

19:05

20.3 C

1008.5 hpa

70 %

0.0 km/h aus 116

0.0 km/h aus ---

14.7 C

20.6 C

20.3 C

20.6 C

212 W/m

0.00 mm

19:10

20.4 C

1008.5 hpa

70 %

1.6 km/h aus 117

4.8 km/h aus WSW

14.8 C

20.7 C

20.4 C

20.7 C

172 W/m

0.00 mm

19:15

20.5 C

1008.3 hpa

68 %

3.2 km/h aus 117

6.4 km/h aus N

14.4 C

20.6 C

20.5 C

20.6 C

148 W/m

0.00 mm

19:20

20.6 C

1008.3 hpa

68 %

1.6 km/h aus 116

4.8 km/h aus N

14.4 C

20.7 C

20.6 C

20.7 C

116 W/m

0.00 mm

19:25

20.6 C

1008.3 hpa

68 %

1.6 km/h aus 113

3.2 km/h aus N

14.4 C

20.7 C

20.6 C

20.7 C

93 W/m

0.00 mm

19:30

20.6 C

1008.4 hpa

67 %

3.2 km/h aus 117

4.8 km/h aus N

14.3 C

20.7 C

20.6 C

20.7 C

95 W/m

0.00 mm

19:35

20.6 C

1008.4 hpa

67 %

3.2 km/h aus 117

4.8 km/h aus N

14.3 C

20.7 C

20.6 C

20.7 C

94 W/m

0.00 mm

19:40

20.6 C

1008.4 hpa

68 %

3.2 km/h aus 116

4.8 km/h aus N

14.5 C

20.7 C

20.6 C

20.7 C

98 W/m

0.00 mm

19:45

20.6 C

1008.0 hpa

68 %

3.2 km/h aus 115

6.4 km/h aus N

14.5 C

20.7 C

20.6 C

20.7 C

109 W/m

0.00 mm

19:50

20.6 C

1008.0 hpa

68 %

6.4 km/h aus 116

9.7 km/h aus N

14.4 C

20.7 C

20.6 C

20.7 C

93 W/m

0.00 mm

19:55

20.5 C

1008.0 hpa

68 %

3.2 km/h aus 115

8.0 km/h aus N

14.4 C

20.6 C

20.5 C

20.6 C

71 W/m

0.00 mm

20:00

20.4 C

1008.1 hpa

68 %

3.2 km/h aus 116

4.8 km/h aus N

14.3 C

20.6 C

20.4 C

20.6 C

69 W/m

0.00 mm

20:05

20.4 C

1008.1 hpa

68 %

1.6 km/h aus 116

4.8 km/h aus N

14.3 C

20.6 C

20.4 C

20.6 C

64 W/m

0.00 mm

20:10

20.3 C

1008.1 hpa

68 %

0.0 km/h aus 114

0.0 km/h aus ---

14.2 C

20.5 C

20.3 C

20.5 C

59 W/m

0.00 mm

20:15

20.3 C

1008.2 hpa

69 %

1.6 km/h aus 117

6.4 km/h aus N

14.4 C

20.5 C

20.3 C

20.5 C

42 W/m

0.00 mm

20:20

20.2 C

1008.2 hpa

69 %

3.2 km/h aus 117

6.4 km/h aus NNE

14.3 C

20.4 C

20.2 C

20.4 C

42 W/m

0.00 mm

20:25

20.2 C

1008.2 hpa

70 %

3.2 km/h aus 117

6.4 km/h aus NE

14.5 C

20.4 C

20.2 C

20.4 C

46 W/m

0.00 mm

20:30

20.1 C

1008.5 hpa

70 %

1.6 km/h aus 115

4.8 km/h aus ENE

14.4 C

20.4 C

20.1 C

20.4 C

47 W/m

0.00 mm

20:35

20.0 C

1008.5 hpa

71 %

3.2 km/h aus 116

8.0 km/h aus N

14.6 C

20.4 C

20.0 C

20.4 C

47 W/m

0.00 mm

20:40

19.9 C

1008.5 hpa

72 %

8.0 km/h aus 117

9.7 km/h aus NW

14.7 C

20.3 C

19.9 C

20.3 C

39 W/m

0.00 mm

20:45

19.8 C

1008.0 hpa

72 %

1.6 km/h aus 118

8.0 km/h aus WNW

14.6 C

20.2 C

19.8 C

20.2 C

32 W/m

0.00 mm

20:50

19.7 C

1008.0 hpa

73 %

3.2 km/h aus 117

6.4 km/h aus WNW

14.7 C

20.1 C

19.7 C

20.1 C

35 W/m

0.00 mm

20:55

19.7 C

1008.0 hpa

75 %

4.8 km/h aus 114

6.4 km/h aus ESE

15.1 C

20.1 C

19.7 C

20.1 C

36 W/m

0.00 mm

21:00

19.6 C

1008.5 hpa

75 %

4.8 km/h aus 117

6.4 km/h aus ESE

15.0 C

19.9 C

19.6 C

19.9 C

27 W/m

0.00 mm

21:05

19.4 C

1008.5 hpa

75 %

8.0 km/h aus 116

16.1 km/h aus NNW

14.9 C

19.8 C

19.4 C

19.8 C

22 W/m

0.00 mm

21:10

19.2 C

1008.5 hpa

75 %

8.0 km/h aus 117

16.1 km/h aus NNW

14.7 C

19.6 C

19.2 C

19.6 C

24 W/m

0.00 mm

21:15

19.1 C

1008.5 hpa

76 %

4.8 km/h aus 114

11.3 km/h aus SE

14.7 C

19.4 C

19.1 C

19.4 C

24 W/m

0.00 mm

21:20

19.0 C

1008.5 hpa

77 %

6.4 km/h aus 114

9.7 km/h aus SE

14.9 C

19.4 C

19.0 C

19.4 C

18 W/m

0.00 mm

21:25

18.8 C

1008.5 hpa

78 %

6.4 km/h aus 116

9.7 km/h aus SE

14.9 C

19.2 C

18.8 C

19.2 C

12 W/m

0.00 mm

21:30

18.8 C

1008.9 hpa

78 %

3.2 km/h aus 117

4.8 km/h aus ESE

14.9 C

19.2 C

18.8 C

19.2 C

9 W/m

0.00 mm

21:35

18.7 C

1008.9 hpa

78 %

3.2 km/h aus 115

8.0 km/h aus NE

14.8 C

19.1 C

18.7 C

19.1 C

5 W/m

0.00 mm

21:40

18.6 C

1008.9 hpa

78 %

1.6 km/h aus 115

8.0 km/h aus NNE

14.7 C

18.9 C

18.6 C

18.9 C

0 W/m

0.00 mm

21:45

18.5 C

1008.3 hpa

79 %

3.2 km/h aus 116

6.4 km/h aus NNW

14.8 C

18.9 C

18.5 C

18.9 C

0 W/m

0.00 mm

21:50

18.4 C

1008.3 hpa

79 %

3.2 km/h aus 117

4.8 km/h aus NNW

14.7 C

18.8 C

18.4 C

18.8 C

0 W/m

0.00 mm

21:55

18.3 C

1008.3 hpa

79 %

4.8 km/h aus 117

8.0 km/h aus NW

14.6 C

18.7 C

18.3 C

18.7 C

0 W/m

0.00 mm

22:00

18.3 C

1007.8 hpa

80 %

4.8 km/h aus 115

6.4 km/h aus NW

14.8 C

18.7 C

18.3 C

18.7 C

0 W/m

0.00 mm

22:05

18.2 C

1007.8 hpa

80 %

4.8 km/h aus 115

6.4 km/h aus WNW

14.7 C

18.5 C

18.2 C

18.5 C

0 W/m

0.00 mm

22:10

18.1 C

1007.8 hpa

81 %

4.8 km/h aus 117

8.0 km/h aus WNW

14.8 C

18.4 C

18.1 C

18.4 C

0 W/m

0.00 mm

22:15

18.0 C

1007.0 hpa

81 %

4.8 km/h aus 117

9.7 km/h aus WNW

14.7 C

18.3 C

18.0 C

18.3 C

0 W/m

0.00 mm

22:20

17.9 C

1007.0 hpa

82 %

6.4 km/h aus 116

11.3 km/h aus WNW

14.8 C

18.3 C

17.9 C

18.3 C

0 W/m

0.00 mm

22:25

17.9 C

1007.0 hpa

82 %

1.6 km/h aus 114

4.8 km/h aus WNW

14.8 C

18.2 C

17.9 C

18.2 C

0 W/m

0.00 mm

22:30

17.8 C

1007.4 hpa

82 %

1.6 km/h aus 114

3.2 km/h aus WNW

14.7 C

18.2 C

17.8 C

18.2 C

0 W/m

0.00 mm

22:35

17.8 C

1007.4 hpa

82 %

4.8 km/h aus 116

9.7 km/h aus WNW

14.7 C

18.1 C

17.8 C

18.1 C

0 W/m

0.00 mm

22:40

17.7 C

1007.4 hpa

82 %

6.4 km/h aus 117

9.7 km/h aus WNW

14.6 C

18.0 C

17.7 C

18.0 C

0 W/m

0.00 mm

22:45

17.7 C

1007.5 hpa

83 %

3.2 km/h aus 116

6.4 km/h aus WNW

14.7 C

17.9 C

17.7 C

17.9 C

0 W/m

0.00 mm

22:50

17.6 C

1007.5 hpa

83 %

1.6 km/h aus 114

6.4 km/h aus WNW

14.7 C

17.9 C

17.6 C

17.9 C

0 W/m

0.00 mm

22:55

17.6 C

1007.5 hpa

83 %

6.4 km/h aus 117

9.7 km/h aus W

14.6 C

17.8 C

17.6 C

17.8 C

0 W/m

0.00 mm

23:00

17.5 C

1007.0 hpa

83 %

6.4 km/h aus 117

11.3 km/h aus WSW

14.6 C

17.8 C

17.5 C

17.8 C

0 W/m

0.00 mm

23:05

17.4 C

1007.0 hpa

83 %

1.6 km/h aus 117

4.8 km/h aus W

14.5 C

17.7 C

17.4 C

17.7 C

0 W/m

0.00 mm

23:10

17.4 C

1007.0 hpa

83 %

0.0 km/h aus 115

3.2 km/h aus W

14.5 C

17.7 C

17.4 C

17.7 C

0 W/m

0.00 mm

23:15

17.4 C

1007.5 hpa

83 %

0.0 km/h aus 115

1.6 km/h aus W

14.5 C

17.7 C

17.4 C

17.7 C

0 W/m

0.00 mm

23:20

17.3 C

1007.5 hpa

82 %

0.0 km/h aus 116

1.6 km/h aus W

14.2 C

17.6 C

17.3 C

17.6 C

0 W/m

0.00 mm

23:25

17.3 C

1007.5 hpa

83 %

0.0 km/h aus 117

3.2 km/h aus W

14.4 C

17.5 C

17.3 C

17.5 C

0 W/m

0.00 mm

23:30

17.2 C

1007.6 hpa

83 %

3.2 km/h aus 117

4.8 km/h aus W

14.3 C

17.4 C

17.2 C

17.4 C

0 W/m

0.00 mm

23:35

17.2 C

1007.6 hpa

83 %

3.2 km/h aus 115

6.4 km/h aus W

14.3 C

17.4 C

17.2 C

17.4 C

0 W/m

0.00 mm

23:40

17.1 C

1007.6 hpa

84 %

3.2 km/h aus 114

6.4 km/h aus W

14.4 C

17.3 C

17.1 C

17.3 C

0 W/m

0.00 mm

23:45

17.1 C

1007.1 hpa

84 %

3.2 km/h aus 117

4.8 km/h aus NE

14.3 C

17.3 C

17.1 C

17.3 C

0 W/m

0.00 mm

23:50

17.0 C

1007.1 hpa

84 %

1.6 km/h aus 117

4.8 km/h aus NE

14.3 C

17.2 C

17.0 C

17.2 C

0 W/m

0.00 mm

23:55

17.0 C

1007.1 hpa

84 %

3.2 km/h aus 117

4.8 km/h aus NNW

14.3 C

17.2 C

17.0 C

17.2 C

0 W/m

0.00 mm